Regional Weather Roundup
Issued by NWS

Home | Current Version | Previous Version | Text Only | Print | Product List | Glossary Off
Versions: 1 2 3 4 5 6 7 8 9 10 11 12 13 14 15 16 17 18 19 20 21 22 23 24 25 26 27 28 29 30 31 32 33 34 35 36 37 38 39 40 41 42 43 44 45 46 47 48 49 50

000
ASUS43 KLOT 031109
RWRIL

ILLINOIS REGIONAL WEATHER ROUNDUP
NATIONAL WEATHER SERVICE CHICAGO/ROMEOVILLE IL
600 AM CDT THU SEP 03 2015

NOTE: "FAIR" INDICATES FEW OR NO CLOUDS BELOW 12,000 FEET WITH NO
SIGNIFICANT WEATHER AND/OR OBSTRUCTIONS TO VISIBILITY.

* THESE STATIONS ARE NOT UNDER NWS QUALITY CONTROL. THEY ALSO MAY NOT
  REPORT WEATHER SUCH AS PRECIPITATION OR FOG.

ILZ001-002-007-009-015-016-024-031200-
NORTHWEST ILLINOIS

CITY           SKY/WX    TMP DP  RH WIND       PRES   REMARKS
MOLINE         PTCLDY    72  67  84 CALM      29.95R
STERLING*      PTCLDY    66  66 100 CALM      29.94S
SAVANNA*       CLEAR     69  67  92 S5        29.94S
$$

ILZ003-004-008-010-011-017-018-031200-
NORTH CENTRAL ILLINOIS

CITY           SKY/WX    TMP DP  RH WIND       PRES   REMARKS
ROCKFORD       PTCLDY    70  67  90 S6        29.95F
FREEPORT*      CLEAR     70  67  90 SW8       29.96S
ROCHELLE*      CLEAR     66  65  97 S3        29.96S FOG
DE KALB*       CLEAR     67  66  97 CALM      29.97F FOG
PERU*          CLEAR     70  66  88 S5        29.98R
$$

ILZ005-006-012>014-019>023-031200-
NORTHEAST ILLINOIS

CITY           SKY/WX    TMP DP  RH WIND       PRES   REMARKS
CHICAGO-OHARE  PTCLDY    73  68  84 SW7       29.95S
CHICAGO-MIDWAY PTCLDY    75  66  73 SW6       29.96S
AURORA         CLEAR     70  66  87 SW5       29.97S
LANSING*       CLEAR     67  65  94 S5        29.97F
JOLIET*        CLEAR     68  68  99 CALM      29.97S FOG
WAUKEGAN       CLEAR     71  67  87 SW8       29.93F
DUPAGE AIRPORT CLEAR     69  66  90 S3        29.96S
KANKAKEE*      CLEAR     69  67  94 S3        30.00R
WHEELING       CLEAR     74  67  78 S5        29.96S
MORRIS*        MOCLDY    68  65  90 SW5       29.96S
ROMEOVILLE*    CLEAR     68  65  93 S7        29.97F
NORTHERLY ISL    N/A     76  66  71 W5          N/A
$$

LMZ740>746-031200-
SOUTHERN LAKE MICHIGAN

STATION/POSITION SKY/WX   TEMP    WIND        PRES    VSBY  WAVE
                          AIR SEA DIR/SP/G                  HT/PER
                          (F)     (DEG/KT/KT) (MB)    (MI)  (FT/S)
SOUTHERN BUOY              74 71  220/ 12/ 14 1012.7F         0
WILMETTE HARBOR            68 62   40/  6/  8   N/A           0
HARRISON CRIB              79     240/ 15/ 21   N/A
BURNHAM HARBOR             76     210/  4/  7   N/A
CALUMET HARBOR             75     210/  3/  4   N/A
BURNS HARBOR               76     220/  7/ 10 1015.2S
MICHIGAN CITY              75     170/  8/  9   N/A
MICHIGAN CITY 6N           74 73  220/  8/  8   N/A           1
ST. JOSEPH                 74 73  260/  8/ 10   N/A           1/ 2
$$

ILZ025>027-034>036-040-047-049-050-058-095>099-031200-
WEST-CENTRAL ILLINOIS

CITY           SKY/WX    TMP DP  RH WIND       PRES   REMARKS
QUINCY         CLEAR     72  67  84 S5        29.97S
GALESBURG*     MOCLDY    69  67  90 S5        29.97R
MACOMB*        CLOUDY    67  66  96 CALM      30.00R
JACKSONVILLE*  PTCLDY    73  69  88 S3        29.99R
PITTSFIELD*    PTCLDY    74  69  84 S3        30.00R
$$

ILZ028>032-037-038-041>044-048-051>054-059>061-031200-
CENTRAL ILLINOIS

CITY           SKY/WX    TMP DP  RH WIND       PRES   REMARKS
PONTIAC        CLEAR     67  67  99 SE3       30.00R FOG
BLOOMINGTON    PTCLDY    70  69  96 SW5       30.02R
DECATUR        CLEAR     71  66  84 SW5       30.01R
PEORIA         MOCLDY    71  66  84 S5        29.98S
LACON*         PTCLDY    70  66  87 S5        29.97R
LINCOLN*       CLEAR     67  65  91 CALM      29.99S FOG
SPRINGFIELD    CLEAR     70  67  90 SW3       29.99S
TAYLORVILLE    CLEAR     68  66  94 S3        30.00S
$$

ILZ033-039-045-046-055>057-062-063-031200-
EAST-CENTRAL ILLINOIS

CITY           SKY/WX    TMP DP  RH WIND       PRES   REMARKS
CHAMPAIGN      CLEAR     68  66  93 S3        30.01S
RANTOUL*       CLEAR     70  67  91 CALM      30.01R
MATTOON        CLEAR     71  67  87 S6        30.01S
PARIS*         CLEAR     67  66  97 CALM      30.03R
$$

ILZ079-100>102-031200-
SOUTHWEST ILLINOIS

CITY           SKY/WX    TMP DP  RH WIND       PRES   REMARKS
ALTON          CLEAR     67  66  97 CALM      30.01R
BELLEVILLE     CLEAR     70  70 100 E3        30.00R
CAHOKIA*       CLEAR     70  67  90 S5        30.00R
SPARTA*        CLEAR     69  67  93 CALM      30.02R
$$

ILZ064>066-069>071-074>076-080>082-084>086-088>090-092>094-031200-
SOUTH-CENTRAL ILLINOIS

CITY           SKY/WX    TMP DP  RH WIND       PRES   REMARKS
CARBONDALE     FOG       66  65  96 CALM      30.02R VSB 1/2
CAIRO*         FOG       65  65 100 CALM      30.02R VSB 1/2
EFFINGHAM*     CLEAR     67  64  91 CALM      30.04R FOG
MARION         CLEAR     72  68  88 CALM      30.03R
MT. VERNON     CLEAR     64  59  82 CALM      30.03R
CENTRALIA*     CLEAR     68  68  99 CALM      30.02R
SALEM*         CLEAR     67  65  93 CALM      30.02R FOG
METROPOLIS*    CLEAR     65  65 100 CALM      30.03R FOG
$$

ILZ067-068-072-073-078-083-087-091-031200-
SOUTHEAST ILLINOIS

CITY           SKY/WX    TMP DP  RH WIND       PRES   REMARKS
LAWRENCEVILLE  FOG       66  65  96 CALM      30.03R VSB 1/4
FLORA*         CLEAR     65  64  97 CALM      30.02S FOG
FAIRFIELD*     PTCLDY    67  67  99 CALM      30.01S FOG
HARRISBURG*    PTCLDY    65  65  99 CALM      30.02S FOG
ROBINSON*      CLEAR     64  63  97 CALM      30.03R FOG
CARMI*         FOG       63  63 100 CALM      30.02R VSB 1/4
$$

ABBREVIATIONS USED IN REMARKS
   TC - TEMPERATURE IN CELSIUS
  WCI - WIND CHILL INDEX
   HX - HEAT INDEX
  VSB - VISIBILITY
$$



USA.gov is the U.S. government's official web portal to all federal, state and local government web resources and services.